TIME,DELAY(SENSOR),PRES,OXYGEN,RAWTEMP,T(OPTODE),TCPHASE,FLUOR,BETA(BETA700),BETA(BETA412),BETA(BETA440),CDOM,C(CSC),ED(ED412.20),ED(ED444.00),ED(ED489.60),ED(ED554.30),LU(LU412.10),LU(LU443.90),LU(LU489.70),LU(LU554.70),COMP,TILTX,TILTY,CHECK
1351048836,5811,895.6900024414062000,34.9163703918457000,555.7971801757812000,4.6160769462585450,56.2515411376953100,55,100,100,77,82,15535,0,0,0,0,2147121307,2147771739,2147573184,2147569856,3091,3,13,26697
1351052432,5806,959.3499755859375000,39.5485801696777340,562.2601928710938000,4.4158267974853520,55.6002998352050800,55,99,100,79,83,15535,0,0,0,0,2147120192,2147769307,2147571364,2147565906,513,3,13,45189
1351056032,5809,968.9099731445312000,40.4270591735839840,563.6478881835938000,4.3727841377258300,55.4829711914062500,54,100,100,78,81,15536,0,0,0,0,2147123044,2147772836,2147572416,2147568228,141,3,13,15581
1351059632,5813,995.8699951171875000,39.9766197204589840,565.0872802734375000,4.3281230926513670,55.5704689025878900,56,97,100,79,82,15538,0,0,0,0,2147120539,2147772736,2147575497,2147568795,58,3,13,22367
1351063232,5809,998.5800170898438000,39.2327308654785160,565.6818847656250000,4.3096690177917480,55.6834602355957000,55,98,100,77,83,15537,0,0,0,0,2147120027,2147773851,2147575168,2147571629,564,3,13,23004
1351066832,5809,993.7199707031250000,39.2627601623535160,566.3925170898438000,4.2876110076904300,55.6904602050781250,56,98,99,78,83,15534,0,0,0,0,2147121243,2147771620,2147573595,2147570057,159,3,13,26995
1351070432,5809,998.2700195312500000,39.4143714904785160,566.9266967773438000,4.2710270881652830,55.6681098937988300,55,99,102,78,82,15536,0,0,0,0,2147123977,2147773403,2147577947,2147568457,196,3,13,34061
1351074032,5805,999.1099853515625000,39.2038307189941400,566.8579101562500000,4.2731609344482420,55.6993904113769500,55,98,102,78,83,15513,0,0,0,0,2147118171,2147775542,2147571748,2147570944,3584,3,13,43682
1351077632,5808,1000.1300048828125000,39.1038284301757800,567.0601806640625000,4.2668781280517580,55.7181205749511700,54,100,100,77,84,15523,0,0,0,0,2147123291,2147773467,2147574884,2147571949,151,3,13,51948
1351081232,5807,1003.1599731445312000,39.4126205444335940,567.0612792968750000,4.2668461799621580,55.6704711914062500,55,98,101,79,82,15535,0,0,0,0,2147121508,2147773805,2147573997,2147570258,160,3,13,10069
1351084832,5810,1012.4199829101562000,38.5668182373046900,565.6437988281250000,4.3108520507812500,55.7878684997558600,55,102,100,78,82,15536,0,0,0,0,2147119341,2147773074,2147576841,2147569883,65,3,13,51588
1351088432,5808,1016.2899780273438000,38.9812316894531250,565.8355712890625000,4.3048992156982420,55.7254600524902340,55,98,100,77,83,15536,0,0,0,0,2147122733,2147774454,2147573376,2147570020,109,3,13,22719
1351092032,5811,1008.6799926757812000,38.6232414245605500,565.7426757812500000,4.3077812194824220,55.7748794555664060,56,98,101,78,82,15531,0,0,0,0,2147121243,2147774912,2147574646,2147566317,469,3,13,32962
1351095632,5808,1008.7000122070312000,38.4013595581054700,565.8375854492188000,4.3048357963562010,55.8099098205566400,56,100,100,78,81,15533,0,0,0,0,2147117842,2147775122,2147577371,2147566848,421,3,13,51828
1351099232,5809,1005.9199829101562000,38.8673286437988300,566.7089233398438000,4.2777881622314450,55.7499008178710940,55,109,100,78,83,15533,0,0,0,0,2147120301,2147775780,2147574564,2147570340,80,3,13,22546
1351102832,5809,1010.0900268554688000,39.3814201354980500,567.3461914062500000,4.2579989433288570,55.6773109436035160,55,98,101,78,82,15533,0,0,0,0,2147121307,2147776338,2147574025,2147572370,334,3,13,29737
1351106432,5810,1010.3300170898438000,38.7047996520996100,566.2338867187500000,4.2925357818603520,55.7720603942871100,55,98,100,78,83,15532,0,0,0,0,2147125430,2147773750,2147575652,2147573549,3286,3,13,17589
1351110032,5808,1005.6900024414062000,37.9239616394043000,566.0529785156250000,4.2981491088867190,55.8906097412109400,55,98,101,78,81,15533,0,0,0,0,2147120475,2147768804,2147578276,2147568585,3423,3,13,49725
1351113632,5810,1009.7399902343750000,38.2311401367187500,566.4901123046875000,4.2845802307128910,55.8431510925293000,54,98,99,78,83,15530,0,0,0,0,2147124827,2147775579,2147572726,2147569526,2771,3,13,35621
1351117232,5810,1015.0300292968750000,38.2934799194335940,565.6049804687500000,4.3120560646057130,55.8271598815918000,54,97,100,79,81,15533,0,0,0,0,2147119872,2147771584,2147579584,2147568923,3588,3,13,61909
1351120832,5808,1014.8400268554688000,38.0509796142578100,566.1514892578125000,4.2950940132141110,55.8713684082031250,54,99,100,78,83,15531,0,0,0,0,2147121078,2147772672,2147575515,2147568402,3597,3,13,12506
1351124432,5810,1009.9299926757812000,38.1660385131835940,565.6976928710938000,4.3091788291931150,55.8499183654785160,55,100,100,77,83,15531,0,0,0,0,2147121526,2147772672,2147575478,2147566043,184,3,13,21281
1351128032,5808,1013.0800170898438000,38.8819198608398440,566.5313110351562000,4.2833018302917480,55.7489089965820300,55,98,100,78,82,15533,0,0,0,0,2147119616,2147776859,2147574994,2147568310,2776,3,13,14616
1351131632,5811,1014.7299804687500000,38.3485603332519500,566.4569702148438000,4.2856078147888180,55.8257789611816400,55,98,100,77,83,15525,0,0,0,0,2147124141,2147773339,2147576594,2147569828,309,3,13,3849
1351135232,5811,1016.5399780273438000,38.6058197021484400,566.0775756835938000,4.2973861694335940,55.7817192077636700,55,98,101,78,81,15530,0,0,0,0,2147123145,2147775826,2147577682,2147567222,3433,3,13,51191
1351138832,5809,1016.7100219726562000,37.7426490783691400,566.2310791015625000,4.2926220893859860,55.9160308837890600,54,102,101,76,82,15527,0,0,0,0,2147120502,2147775131,2147576868,2147567259,218,3,13,38033
1351142432,5810,1008.4699707031250000,37.9522705078125000,566.1906127929688000,4.2938799858093260,55.8839416503906250,55,98,99,79,83,15531,0,0,0,0,2147125138,2147771510,2147578029,2147570779,5,3,13,2286
1351146032,5808,1012.1599731445312000,38.7413101196289060,567.2255859375000000,4.2617440223693850,55.7785682678222660,55,98,101,79,83,15529,0,0,0,0,2147124900,2147771236,2147573568,2147571584,211,3,13,58004
1351149632,5812,1017.3099975585938000,39.0673217773437500,566.7971191406250000,4.2750492095947270,55.7236289978027340,55,99,99,78,82,15526,0,0,0,0,2147125120,2147774509,2147570029,2147570843,74,3,13,37702
1351153232,5809,1017.2100219726562000,39.1676292419433600,567.0576782226562000,4.2669558525085450,55.7106513977050800,54,101,101,76,83,15524,0,0,0,0,2147121508,2147769965,2147571757,2147565385,3493,3,13,24031
1351156832,5809,1019.2700195312500000,38.6576805114746100,566.3046264648438000,4.2903389930725100,55.7800407409668000,54,98,100,79,82,15528,0,0,0,0,2147122020,2147771602,2147575076,2147568832,161,3,13,23052
1351160432,5812,1018.9299926757812000,38.0723609924316400,566.0357055664062000,4.2986869812011720,55.8620491027832000,55,98,100,78,83,15529,0,0,0,0,2147122413,2147774061,2147573440,2147567030,3457,3,13,21029
1351164032,5811,1018.1699829101562000,38.6960792541503900,566.4611206054688000,4.2854819297790530,55.7775306701660160,55,97,100,77,82,15526,0,0,0,0,2147121188,2147772370,2147577371,2147565037,138,3,13,57630
1351167632,5809,1015.9600219726562000,39.0338096618652340,567.1812744140625000,4.2631211280822750,55.7326393127441400,56,98,101,78,83,15525,0,0,0,0,2147124406,2147779821,2147576539,2147566400,30,3,13,1253
1351171232,5810,1013.5800170898438000,38.8294410705566400,567.7454833984375000,4.2456002235412600,55.7709007263183600,56,100,101,77,84,15523,0,0,0,0,2147123273,2147777947,2147573394,2147567250,267,3,13,15934
1351174832,5809,1015.3699951171875000,38.6575698852539060,567.5327758789062000,4.2522048950195310,55.7895393371582000,55,99,100,80,82,15523,0,0,0,0,2147123922,2147771849,2147571264,2147569728,3587,3,13,48678
1351178432,5810,1020.4899902343750000,38.5256500244140600,568.0432739257812000,4.2363491058349610,55.8204116821289060,55,99,100,78,82,15523,0,0,0,0,2147123328,2147777773,2147572635,2147566902,252,3,13,45391
1351182032,5808,1013.9600219726562000,38.5427017211914060,568.1259155273438000,4.2337841987609860,55.8169898986816400,55,99,100,78,83,15525,0,0,0,0,2147122861,2147777984,2147578066,2147569280,150,3,13,13809
1351185632,5810,1020.9799804687500000,39.3814086914062500,567.5900878906250000,4.2504229545593260,55.6836395263671900,55,98,101,78,84,15524,0,0,0,0,2147119844,2147775469,2147575625,2147570752,276,3,13,20094
1351189232,5810,1015.3599853515625000,38.1609306335449200,567.5739135742188000,4.2509288787841800,55.8647499084472660,55,98,100,78,83,15525,0,0,0,0,2147123136,2147771392,2147573440,2147567515,390,3,13,28660
1351192832,5812,1020.3699951171875000,39.2727394104003900,568.3093872070312000,4.2280850410461430,55.7036895751953100,55,99,101,78,82,15522,0,0,0,0,2147123538,2147772196,2147572534,2147568877,470,3,13,37402
1351193156,5808,1019.4000244140625000,39.3509407043457000,568.1622924804688000,4.2326550483703610,55.6913681030273440,55,97,100,77,83,15521,0,0,0,0,2147125586,2147769892,2147580306,2147567341,99,3,13,57824
